CAPE
0 0 0 0 0 0 0 0 0 0 0 0 0 0 0 0 0 0 0 0 0 0 0 0 0 0 0 0 0 0 0 0 0 0 0 0 0 0 0 0 0 0 0 0 0
0 0 0 0 0 0 0 0 0 0 0 0 0 0 0 0 0 0 0 0 0 0 0 0 0 0 0 0 0 0 0 0 0 0 0 0 0 0 0 0 0 0 0 0 0
0 0 0 0 0 0 0 0 0 0 0 0 0 0 0 0 0 0 0 0 0 0 0 0 0 0 0 0 0 0 0 0 0 0 0 0 0 0 0 0 0 0 0 0 0
0 0 0 0 0 0 0 0 0 0 0 0 0 0 0 0 0 0 0 0 0 0 0 0 0 0 0 0 0 0 0 0 0 0 0 0 0 0 0 0 0 0 0 0 0
0 0 0 0 0 0 0 0 0 0 0 0 0 0 0 0 0 0 0 0 0 0 0 0 0 0 0 0 0 0 0 0 0 0 0 0 0 0 0 0 0 0 0 0 0
0 0 0 0 0 0 0 0 0 0 0 0 0 0 0 0 0 0 0 0 0 0 0 0 0 0 0 0 0 0 0 0 0 0 0 0 0 0 0 0 0 0 0 0 0
0 0 0 0 0 0 0 0 0 0 0 0 0 0 0 0 0 0 0 0 0 0 0 0 0 0 0 0 0 0 0 0 0 0 0 0 0 0 0 0 0 0 0 0 0
0 0 0 0 0 0 0 0 0 0 0 0 0 0 0 0 0 0 0 0 0 0 0 0 0 0 0 0 0 0 0 0 0 0 0 0 0 0 0 0 0 0 0 0 0
0 0 0 0 0 0 0 0 0 0 0 0 0 0 0 0 0 0 0 0 0 0 0 0 0 0 0 0 0 0 0 0 0 0 0 0 0 0 0 0 0 0 0 0 0
0 0 0 0 0 0 0 0 0 0 0 0 0 0 0 0 0 0 0 0 0 0 0 0 0 0 0 0 0 0 0 0 0 0 0 0 0 0 0 0 0 0 0 0 0
0 0 0 0 0 0 0 0 0 0 0 0 0 0 0 0 0 0 0 0 0 0 0 0 0 0 0 0 0 0 0 0 0 0 0 0 0 0 0 0 0 0 0 0 0
0 0 0 0 0 0 0 0 0 0 0 0 0 0 0 0 0 0 0 0 0 0 0 0 0 0 0 0 0 0 0 0 0 0 0 0 0 0 0 0 0 0 0 0 0
0 0 0 0 0 0 0 0 0 0 0 0 0 0 0 0 0 0 0 0 0 0 0 0 0 0 0 0 0 0 0 0 0 0 0 0 0 0 0 0 0 0 0 0 0
0 0 0 0 0 0 0 0 0 0 0 0 0 0 0 0 0 0 0 0 0 0 0 0 0 0 0 0 0 0 0 0 0 0 0 0 0 0 0 0 0 0 0 0 0
0 0 0 0 0 0 0 0 0 0 0 0 0 0 0 0 0 0 0 0 0 0 0 0 0 0 0 0 0 0 0 0 0 0 0 0 0 0 0 0 0 0 0 0 0
0 0 0 0 0 0 0 0 0 0 0 0 0 0 0 0 0 0 0 0 0 0 0 0 0 0 0 0 0 0 0 0 0 0 0 0 0 0 0 0 0 0 0 0 0
0 0 0 0 0 0 0 0 0 0 0 0 0 0 0 0 0 0 0 0 0 0 0 0 0 0 0 0 0 0 0 0 0 0 0 0 0 0 0 0 0 0 0 0 0
0 0 0 0 0 0 0 0 0 0 0 0 0 0 0 0 0 0 0 0 0 0 0 0 0 0 0 0 0 0 0 0 0 0 0 0 0 0 0 0 0 0 0 0 0
0 0 0 0 0 0 0 0 0 0 0 0 0 0 0 0 0 0 0 0 0 0 0 0 0 0 0 0 0 0 0 0 0 0 0 0 0 0 0 0 0 0 0 0 0
0 0 0 0 0 0 0 0 0 0 0 0 0 0 0 0 0 0 0 0 0 0 0 0 0 0 0 0 0 0 0 0 0 0 0 0 0 0 0 0 0 0 0 0 0
0 0 0 0 0 0 0 0 0 0 0 0 0 0 0 0 0 0 0 0 0 0 0 0 0 0 0 0 0 0 0 0 0 0 0 0 0 0 0 0 0 0 0 0 0
0 0 0 0 0 0 0 0 0 0 0 0 0 0 0 0 0 0 0 0 0 0 0 0 0 0 0 0 0 0 0 0 0 0 0 0 0 0 0 0 0 0 0 0 0
0 0 0 0 0 0 0 0 0 0 0 0 0 0 0 0 0 0 0 0 0 0 0 0 0 0 0 0 0 0 0 0 0 0 0 0 0 0 0 0 0 0 0 0 0
0 0 0 0 0 0 0 0 0 0 0 0 0 0 0 0 0 0 0 0 0 0 0 0 0 0 0 0 0 0 0 0 0 0 0 0 0 0 0 0 0 0 0 0 0
5 0 0 0 0 0 0 0 0 0 0 0 0 0 0 0 0 0 0 0 0 0 0 0 0 0 0 0 0 0 0 0 0 0 0 0 0 0 0 0 0 0 0 0 0
12 0 0 0 0 0 0 0 0 0 0 0 0 0 0 0 0 0 0 0 0 0 0 0 0 0 0 0 0 0 0 0 0 0 0 0 0 0 0 0 0 0 0 0 0
0 0 0 0 0 0 0 0 0 0 0 0 0 0 0 0 0 0 0 0 0 0 0 0 0 0 0 0 0 0 0 0 0 0 0 0 0 0 0 0 0 0 0 0 0
CIN
-0 -0 -0 -0 -0 -0 -0 -0 -0 -0 -0 -0 -0 -0 -0 -0 -0 -0 -0 -0 -0 -0 -0 -0 -0 -0 -0 -0 -0 -0 -0 -0 -0 -0 -0 -0 -0 -0 -0 -0 -0 -0 -0 -0 -0
-0 -0 -0 -0 -0 -0 -0 -0 -0 -0 -0 -0 -0 -0 -0 -0 -0 -0 -0 -0 -0 -0 -0 -0 -0 -0 -0 -0 -0 -0 -0 -0 -0 -0 -0 -0 -0 -0 -0 -0 -0 -0 -0 -0 -0
-0 -0 -0 -0 -0 -0 -0 -0 -0 -0 -0 -0 -0 -0 -0 -0 -0 -0 -0 -0 -0 -0 -0 -0 -0 -0 -0 -0 -0 -0 -0 -0 -0 -0 -0 -0 -0 -0 -0 -0 -0 -0 -0 -0 -0
-0 -0 -0 -0 -0 -0 -0 -0 -0 -0 -0 -0 -0 -0 -0 -0 -0 -0 -0 -0 -0 -0 -0 -0 -0 -0 -0 -0 -0 -0 -0 -0 -0 -0 -0 -0 -0 -0 -0 -0 -0 -0 -0 -0 -0
-0 -0 -0 -0 -0 -0 -0 -0 -0 -0 -0 -0 -0 -0 -0 -0 -0 -0 -0 -0 -0 -0 -0 -0 -0 -0 -0 -0 -0 -0 -0 -0 -0 -0 -0 -0 -0 -0 -0 -0 -0 -0 -0 -0 -0
-0 -0 -0 -0 -0 -0 -0 -0 -0 -0 -0 -0 -0 -0 -0 -0 -0 -0 -0 -0 -0 -0 -0 -0 -0 -0 -0 -0 -0 -0 -0 -0 -0 -0 -0 -0 -0 -0 -0 -0 -0 -0 -0 -0 -0
-0 -0 -0 -0 -0 -0 -0 -0 -0 -0 -0 -0 -0 -0 -0 -0 -0 -0 -0 -0 -0 -0 -0 -0 -0 -0 -0 -0 -0 -0 -0 -0 -0 -0 -0 -0 -0 -0 -0 -0 -0 -0 -0 -0 -0
-0 -0 -0 -0 -0 -0 -0 -0 -0 -0 -0 -0 -0 -0 -0 -0 -0 -0 -0 -0 -0 -0 -0 -0 -0 -0 -0 -0 -0 -0 -0 -0 -0 -0 -0 -0 -0 -0 -0 -0 -0 -0 -0 -0 -0
-0 -0 -0 -0 -0 -0 -0 -0 -0 -0 -0 -0 -0 -0 -0 -0 -0 -0 -0 -0 -0 -0 -0 -0 -0 -0 -0 -0 -0 -0 -0 -0 -0 -0 -0 -0 -0 -0 -0 -0 -0 -0 -0 -0 -0
-0 -0 -0 -0 -0 -0 -0 -0 -0 -0 -0 -0 -0 -0 -0 -0 -0 -0 -0 -0 -0 -0 -0 -0 -0 -0 -0 -0 -0 -0 -0 -0 -0 -0 -0 -0 -0 -0 -0 -0 -0 -0 -0 -0 -0
-0 -0 -0 -0 -0 -0 -0 -0 -0 -0 -0 -0 -0 -0 -0 -0 -0 -0 -0 -0 -0 -0 -0 -0 -0 -0 -0 -0 -0 -0 -0 -0 -0 -0 -0 -0 -0 -0 -0 -0 -0 -0 -0 -0 -0
-0 -0 -0 -0 -0 -0 -0 -0 -0 -0 -0 -0 -0 -0 -0 -0 -0 -0 -0 -0 -0 -0 -0 -0 -0 -0 -0 -0 -0 -0 -0 -0 -0 -0 -0 -0 -0 -0 -0 -0 -0 -0 -0 -0 -0
-0 -0 -0 -0 -0 -0 -0 -0 -0 -0 -0 -0 -0 -0 -0 -0 -0 -0 -0 -0 -0 -0 -0 -0 -0 -0 -0 -0 -0 -0 -0 -0 -0 -0 -0 -0 -0 -0 -0 -0 -0 -0 -0 -0 -0
-0 -0 -0 -0 -0 -0 -0 -0 -0 -0 -0 -0 -0 -0 -0 -0 -0 -0 -0 -0 -0 -0 -0 -0 -0 -0 -0 -0 -0 -0 -0 -0 -0 -0 -0 -0 -0 -0 -0 -0 -0 -0 -0 -0 -0
-0 -0 -0 -0 -0 -0 -0 -0 -0 -0 -0 -0 -0 -0 -0 -0 -0 -0 -0 -0 -0 -0 -0 -0 -0 -0 -0 -0 -0 -0 -0 -0 -0 -0 -0 -0 -0 -0 -0 -0 -0 -0 -0 -0 -0
-0 -0 -0 -0 -0 -0 -0 -0 -0 -0 -0 -0 -0 -0 -0 -0 -0 -0 -0 -0 -0 -0 -0 -0 -0 -0 -0 -0 -0 -0 -0 -0 -0 -0 -0 -0 -0 -0 -0 -0 -0 -0 -0 -0 -0
-0 -0 -0 -0 -0 -0 -0 -0 -0 -0 -0 -0 -0 -0 -0 -0 -0 -0 -0 -0 -0 -0 -0 -0 -0 -0 -0 -0 -0 -0 -0 -0 -0 -0 -0 -0 -0 -0 -0 -0 -0 -0 -0 -0 -0
-0 -0 -0 -0 -0 -0 -0 -0 -0 -0 -0 -0 -0 -0 -0 -0 -0 -0 -0 -0 -0 -0 -0 -0 -0 -0 -0 -0 -0 -0 -0 -0 -0 -0 -0 -0 -0 -0 -0 -0 -0 -0 -0 -0 -0
-0 -0 -0 -0 -0 -0 -0 -0 -0 -0 -0 -0 -0 -0 -0 -0 -0 -0 -0 -0 -0 -0 -0 -0 -0 -0 -0 -0 -0 -0 -0 -0 -0 -0 -0 -0 -0 -0 -0 -0 -0 -0 -0 -0 -0
-0 -0 -0 -0 -0 -0 -0 -0 -0 -0 -0 -0 -0 -0 -0 -0 -0 -0 -0 -0 -0 -0 -0 -0 -0 -0 -0 -0 -0 -0 -0 -0 -0 -0 -0 -0 -0 -0 -0 -0 -0 -0 -0 -0 -0
-0 -0 -0 -0 -0 -0 -0 -0 -0 -0 -0 -0 -0 -0 -0 -0 -0 -0 -0 -0 -0 -0 -0 -0 -0 -0 -0 -0 -0 -0 -0 -0 -0 -0 -0 -0 -0 -0 -0 -0 -0 -0 -0 -0 -0
-0 -0 -0 -0 -0 -0 -0 -0 -0 -0 -0 -0 -0 -0 -0 -0 -0 -0 -0 -0 -0 -0 -0 -0 -0 -0 -0 -0 -0 -0 -0 -0 -0 -0 -0 -0 -0 -0 -0 -0 -0 -0 -0 -0 -0
-0 -0 -0 -0 -0 -0 -0 -0 -0 -0 -0 -0 -0 -0 -0 -0 -0 -0 -0 -0 -0 -0 -0 -0 -0 -0 -0 -0 -0 -0 -0 -0 -0 -0 -0 -0 -0 -0 -0 -0 -0 -0 -0 -0 -0
-0 -0 -0 -0 -0 -0 -0 -0 -0 -0 -0 -0 -0 -0 -0 -0 -0 -0 -0 -0 -0 -0 -0 -0 -0 -0 -0 -0 -0 -0 -0 -0 -0 -0 -0 -0 -0 -0 -0 -0 -0 -0 -0 -0 -0
-29 -0 -0 -0 -0 -0 -0 -0 -0 -0 -0 -0 -0 -0 -0 -0 -0 -0 -0 -0 -0 -0 -0 -0 -0 -0 -0 -0 -0 -0 -0 -0 -0 -0 -0 -0 -0 -0 -0 -0 -0 -0 -0 -0 -0
-10 -0 -0 -0 -0 -0 -0 -0 -0 -0 -0 -0 -0 -0 -0 -0 -0 -0 -0 -0 -0 -0 -0 -0 -0 -0 -0 -0 -0 -0 -0 -0 -0 -0 -0 -0 -0 -0 -0 -0 -0 -0 -0 -0 -0
-0 -0 -0 -0 -0 -0 -0 -0 -0 -0 -0 -0 -0 -0 -0 -0 -0 -0 -0 -0 -0 -0 -0 -0 -0 -0 -0 -0 -0 -0 -0 -0 -0 -0 -0 -0 -0 -0 -0 -0 -0 -0 -0 -0 -0
Wind_Speed
23 23 22 21 20 20 19 19 18 18 18 17 17 17 16 16 17 17 15 16 16 18 16 16 17 16 16 13 12 12 9 23 19 20 20 20 24 26 27 28 28 27 25 24 24
24 24 23 22 21 21 20 19 19 19 19 18 18 18 17 17 18 15 15 16 17 17 15 14 13 15 16 13 12 12 12 18 19 18 18 20 23 23 26 27 26 25 25 25 25
25 25 24 24 23 22 22 21 21 20 20 19 19 19 19 18 19 12 14 16 16 16 17 18 16 15 14 17 18 20 19 17 19 18 19 21 21 21 24 26 25 24 24 24 25
27 26 26 25 24 24 23 23 22 22 21 21 20 20 21 19 15 14 15 17 17 17 17 17 17 16 18 17 19 20 20 18 20 17 19 20 21 23 24 24 23 24 24 24 25
28 27 27 26 26 25 25 24 24 23 23 22 21 20 19 20 19 14 17 18 18 18 17 18 18 18 14 15 18 19 20 20 20 20 19 20 21 21 22 21 22 22 23 25 26
30 28 28 27 27 26 26 26 25 25 24 23 22 21 19 23 17 17 18 19 19 19 18 18 17 17 14 12 17 16 18 19 19 20 21 20 19 19 19 20 21 22 24 26 27
32 30 28 28 28 28 27 27 27 26 25 24 22 19 23 22 18 18 20 19 19 19 19 18 17 19 13 15 15 16 17 17 17 17 18 20 20 19 17 17 19 21 23 25 27
32 31 30 29 29 29 29 29 28 28 26 25 22 20 21 17 20 20 20 20 19 19 18 18 18 14 15 14 13 12 13 14 12 12 9 18 16 15 15 16 18 20 22 24 27
33 33 31 29 29 29 29 30 30 28 26 25 20 19 22 15 18 20 20 20 19 17 16 15 12 14 13 10 11 8 14 12 17 14 9 9 14 11 12 14 16 19 20 23 26
34 33 31 30 29 29 30 30 29 26 24 22 25 21 20 17 18 20 19 19 17 15 13 14 12 10 8 13 20 16 16 13 17 23 13 14 15 10 11 12 15 18 20 23 26
35 33 32 30 29 28 25 22 21 20 23 22 19 20 16 16 18 16 17 17 15 15 17 14 15 16 16 20 20 18 16 17 16 19 18 15 12 9 10 11 14 15 20 23 26
35 33 32 31 29 28 25 23 17 19 22 23 20 18 17 17 15 16 19 17 15 16 15 14 14 16 18 19 19 18 18 16 18 16 15 12 9 8 10 10 14 16 20 23 25
35 33 31 30 29 28 26 27 21 20 23 21 20 18 16 19 17 17 19 15 15 14 14 15 14 16 17 17 18 18 20 19 20 16 12 10 9 5 8 12 14 16 19 22 25
35 33 31 28 28 28 28 22 20 19 25 23 23 19 15 14 16 16 16 15 15 13 13 16 16 16 16 17 21 20 19 19 18 17 21 6 26 2 4 8 10 14 19 23 25
35 33 30 27 27 26 20 19 18 18 30 15 16 13 13 16 9 14 15 15 15 13 16 15 15 16 17 19 20 19 19 19 16 14 15 12 16 15 4 7 9 13 18 22 25
33 32 29 30 30 28 20 18 17 25 32 20 17 19 14 15 14 12 13 15 14 13 16 14 15 18 18 17 18 18 19 15 15 14 20 10 8 11 7 6 8 14 19 22 25
32 33 30 29 30 24 21 19 25 34 17 22 21 15 15 14 13 11 10 11 16 13 14 13 15 17 17 18 14 16 20 25 22 18 25 16 13 16 16 16 11 14 19 22 25
32 31 32 33 26 22 25 26 36 31 27 15 14 14 17 12 13 10 10 14 15 18 17 16 20 18 18 19 21 20 20 23 27 25 23 17 19 14 14 14 15 16 18 22 25
29 31 35 31 27 23 30 35 33 26 27 18 14 17 17 13 14 12 14 14 16 18 19 19 20 15 17 18 18 19 18 17 20 18 19 16 18 17 14 14 14 17 20 24 27
32 33 35 25 25 26 34 39 31 25 23 19 20 19 18 17 15 13 13 14 15 15 17 18 21 17 18 17 14 13 20 19 14 25 27 20 20 20 14 15 16 18 23 25 26
32 36 28 23 24 31 43 40 36 24 21 21 21 19 17 16 14 13 14 13 14 14 16 16 18 18 18 14 19 14 16 15 18 19 25 28 23 20 15 15 17 21 24 25 26
34 43 26 26 36 39 43 40 34 29 25 22 23 19 18 13 14 14 13 14 13 12 17 17 18 20 18 17 19 18 18 19 19 20 23 25 28 19 17 17 18 21 23 22 25
37 34 25 27 40 39 39 39 34 30 28 23 21 19 11 13 14 12 13 13 13 15 16 15 17 21 18 18 17 16 15 16 19 22 23 26 28 15 16 18 19 20 21 22 23
35 38 30 34 36 36 40 38 32 29 27 24 21 18 14 13 14 13 13 13 14 15 15 17 18 19 23 23 21 19 19 20 19 23 26 25 26 19 19 20 18 21 22 22 24
36 38 35 45 46 40 38 32 32 28 25 21 20 19 15 15 12 13 11 10 14 14 15 18 20 20 22 24 24 23 24 24 23 23 25 27 28 27 22 17 19 20 22 22 25
39 36 35 31 39 36 34 35 34 30 26 28 23 19 15 15 17 14 10 14 16 13 16 17 22 23 25 25 23 25 24 23 23 24 25 26 27 24 20 18 18 20 20 22 24
34 29 34 33 43 37 34 32 32 27 26 25 22 17 13 12 10 9 12 13 11 14 15 18 21 23 24 24 27 30 25 24 25 21 22 24 23 20 22 21 20 22 21 23 24
Wind_Direction
270 272 272 272 272 273 276 278 281 282 281 277 273 265 263 263 257 239 245 247 244 260 258 229 220 198 196 169 156 168 169 17 34 38 43 40 36 34 38 39 39 44 46 45 43
269 268 272 270 271 272 273 276 278 279 280 277 272 266 265 267 249 250 261 263 258 255 250 257 264 236 196 162 129 220 28 29 21 38 33 49 48 50 41 41 44 46 44 40 37
268 268 268 271 269 271 272 274 275 276 279 278 274 266 260 265 252 270 272 268 257 251 239 241 226 225 250 335 307 358 28 34 24 42 42 36 40 42 42 39 44 45 40 35 31
267 265 266 268 269 269 271 272 274 275 277 275 271 267 260 256 251 278 267 261 253 250 246 250 236 196 314 359 13 23 28 39 31 45 38 36 39 41 43 46 46 44 39 34 27
263 265 265 266 269 269 270 271 272 274 276 272 270 270 255 247 252 285 268 270 265 275 285 280 286 306 2 22 23 30 33 39 46 50 50 49 47 48 46 47 46 40 34 26 20
258 263 263 265 266 269 269 270 271 273 273 270 269 267 252 249 272 276 277 278 291 281 303 306 311 323 7 58 15 43 40 42 48 51 54 54 47 41 50 47 40 36 29 22 17
254 260 264 264 265 267 269 270 270 270 269 265 268 266 255 261 273 274 278 282 290 289 300 315 323 322 15 23 59 54 45 46 54 53 46 49 42 42 51 46 40 34 27 23 17
253 256 261 263 264 266 268 269 268 266 264 260 263 262 264 276 274 270 284 278 298 293 305 323 318 11 360 56 52 52 41 29 43 51 72 18 22 45 48 44 36 30 28 26 18
254 252 258 263 264 265 267 268 265 264 258 256 261 261 269 283 272 282 280 282 293 310 326 343 28 9 46 66 32 33 7 30 25 27 23 19 27 47 48 38 35 28 28 25 16
252 252 255 261 263 266 269 264 259 264 256 257 254 264 271 275 285 278 290 287 300 324 343 348 4 22 49 359 347 3 6 11 8 10 22 21 23 45 44 37 33 29 26 21 14
249 251 252 258 262 267 272 269 261 263 252 262 270 265 281 282 281 296 299 298 314 318 314 336 336 344 347 351 352 356 358 4 10 11 12 16 25 47 44 40 30 31 22 15 11
247 250 251 254 261 264 262 252 271 271 256 258 265 271 277 281 287 302 291 303 315 312 326 334 343 349 349 353 356 359 359 2 3 12 10 22 28 51 44 38 28 25 18 13 11
245 247 251 254 260 258 251 254 273 274 260 259 261 266 274 275 285 298 297 308 316 323 331 339 345 350 351 359 355 359 356 358 354 8 10 20 5 42 42 30 27 24 21 17 14
242 245 249 254 253 249 250 258 270 270 259 254 254 265 271 279 286 296 301 311 318 326 342 339 345 348 350 353 351 346 2 356 355 358 352 37 348 3 34 19 27 23 18 14 12
239 243 246 247 252 246 254 261 265 263 249 245 241 265 269 272 295 299 302 310 315 323 328 334 343 345 345 346 354 352 356 354 356 349 347 335 346 344 65 0 7 22 16 13 13
238 241 245 245 245 248 254 258 252 245 248 249 254 251 254 269 281 303 306 315 326 335 341 342 351 348 349 358 359 359 356 358 0 356 338 334 336 357 354 353 15 18 13 11 10
236 237 240 247 239 247 246 240 236 239 246 252 253 237 250 258 276 288 301 308 312 320 322 341 344 359 357 349 6 3 352 343 338 341 345 18 10 6 17 22 29 14 11 11 10
233 238 240 238 250 248 236 230 236 241 244 261 239 234 250 251 273 283 293 303 316 313 317 321 322 347 360 354 345 353 354 342 338 343 346 7 352 3 26 27 25 19 17 11 7
231 236 234 239 242 242 230 227 235 247 242 245 236 233 250 250 274 275 286 303 316 322 316 320 325 357 359 358 356 357 353 359 343 339 334 345 360 2 15 13 18 13 8 5 2
226 231 234 236 237 233 229 230 232 253 240 233 240 235 245 248 263 273 285 307 314 327 334 330 323 344 353 355 356 351 352 350 355 341 338 348 349 347 350 356 1 359 0 2 3
225 227 231 234 232 228 227 229 229 251 261 232 237 239 250 244 262 266 285 307 321 332 338 341 333 338 347 349 348 354 353 353 347 342 337 336 344 357 353 355 357 357 358 0 1
223 223 230 223 222 227 228 228 232 242 248 248 256 245 253 243 259 279 289 308 325 336 331 337 336 328 338 348 340 336 334 338 339 342 338 334 329 355 2 2 2 357 358 2 2
220 226 231 225 222 225 228 229 238 236 239 244 247 254 239 250 264 281 296 316 325 329 330 339 331 325 330 340 348 341 343 339 334 335 331 332 334 357 356 353 356 359 1 2 2
224 222 224 225 229 229 223 226 232 232 235 243 246 250 243 254 276 278 294 311 323 331 334 336 328 323 318 329 332 328 330 332 330 327 328 329 334 337 338 341 349 356 360 1 1
225 224 222 219 224 229 223 224 226 229 236 238 244 240 241 259 270 281 297 312 322 331 332 330 321 321 318 318 320 320 320 322 320 321 319 327 327 332 347 344 352 356 357 357 357
221 221 220 227 221 230 225 226 226 229 230 233 243 240 246 260 279 268 290 305 312 321 324 327 318 318 315 316 316 317 321 321 320 319 320 325 328 347 357 359 354 352 355 357 357
225 231 224 226 218 226 224 228 225 226 237 236 237 234 248 272 303 313 314 319 326 320 317 319 316 317 316 322 319 317 324 328 330 328 330 328 340 348 346 348 353 352 350 356 358